| time (UTC) | temp F | wind direction | speed MPH | gust MPH | rain 1hr in | rain 24hr in | rain mn in | humidity % | barometer mb |
| 20260906072540 | 75 | 188 | 3.0 | 8.0 | 0.00 | 0.00 | 0.00 | 79 | 1022.9 |
| 20260906071559 | 74 | 191 | 4.0 | 7.0 | 0.00 | 0.00 | 0.00 | 80 | 1022.9 |
| 20260906070537 | 74 | 181 | 4.0 | 10.0 | 0.00 | 0.00 | 0.00 | 80 | 1022.9 |
| 20260906065557 | 74 | 203 | 4.0 | 9.0 | 0.00 | 0.00 | 0.00 | 80 | 1022.8 |
| 20260906064536 | 74 | 221 | 7.0 | 9.0 | 0.00 | 0.00 | 0.00 | 75 | 1022.8 |
| 20260906063534 | 73 | 178 | 5.0 | 8.0 | 0.00 | 0.00 | 0.00 | 77 | 1022.7 |
| 20260906062553 | 73 | 176 | 3.0 | 9.0 | 0.00 | 0.00 | 0.00 | 78 | 1022.8 |
| 20260906061532 | 72 | 187 | 4.0 | 8.0 | 0.00 | 0.00 | 0.00 | 82 | 1022.7 |
| 20260906060530 | 71 | 183 | 3.0 | 5.0 | 0.00 | 0.00 | 0.00 | 84 | 1022.7 |
| 20260906055529 | 70 | 176 | 3.0 | 5.0 | 0.00 | 0.00 | 0.00 | 86 | 1022.7 |
| 20260906054528 | 70 | 177 | 4.0 | 6.0 | 0.00 | 0.00 | 0.00 | 86 | 1022.5 |
| 20260906053527 | 69 | 170 | 3.0 | 6.0 | 0.00 | 0.00 | 0.00 | 88 | 1022.5 |
| 20260906052525 | 69 | 169 | 2.0 | 4.0 | 0.00 | 0.00 | 0.00 | 90 | 1022.6 |
| 20260906051545 | 68 | 173 | 3.0 | 6.0 | 0.00 | 0.00 | 0.00 | 92 | 1022.4 |
| 20260906050524 | 68 | 174 | 2.0 | 5.0 | 0.00 | 0.00 | 0.00 | 92 | 1022.5 |
| 20260906045522 | 68 | 175 | 2.0 | 5.0 | 0.00 | 0.00 | 0.00 | 91 | 1022.4 |
| 20260906044522 | 69 | 165 | 2.0 | 5.0 | 0.00 | 0.00 | 0.00 | 90 | 1022.3 |
| 20260906043520 | 69 | 165 | 2.0 | 6.0 | 0.00 | 0.00 | 0.00 | 88 | 1022.3 |
| 20260906042519 | 70 | 163 | 1.0 | 4.0 | 0.00 | 0.00 | 0.00 | 87 | 1022.2 |
| 20260906041518 | 69 | 128 | 1.0 | 2.0 | 0.00 | 0.00 | 0.00 | 89 | 1022.2 |
| 20260906040517 | 69 | 152 | 1.0 | 3.0 | 0.00 | 0.00 | 0.00 | 90 | 1022.1 |
| 20260906035515 | 69 | 163 | 2.0 | 5.0 | 0.00 | 0.00 | 0.00 | 92 | 1022.1 |
| 20260906034614 | 69 | 151 | 1.0 | 4.0 | 0.00 | 0.00 | 0.00 | 92 | 1022.1 |
| 20260906033614 | 68 | 157 | 2.0 | 4.0 | 0.00 | 0.00 | 0.00 | 92 | 1022.0 |
| 20260906032632 | 68 | 162 | 2.0 | 4.0 | 0.00 | 0.00 | 0.00 | 92 | 1022.0 |
| 20260906031611 | 68 | 172 | 2.0 | 4.0 | 0.00 | 0.00 | 0.00 | 92 | 1022.1 |
| 20260906030610 | 69 | 169 | 2.0 | 6.0 | 0.00 | 0.00 | 0.00 | 92 | 1022.0 |
| 20260906025609 | 69 | 183 | 3.0 | 5.0 | 0.00 | 0.00 | 0.00 | 91 | 1022.0 |
| 20260906024608 | 69 | 171 | 3.0 | 4.0 | 0.00 | 0.00 | 0.00 | 91 | 1022.2 |
| 20260906023607 | 69 | 172 | 3.0 | 4.0 | 0.00 | 0.00 | 0.00 | 91 | 1022.2 |
| 20260906022625 | 70 | 177 | 3.0 | 5.0 | 0.00 | 0.00 | 0.00 | 90 | 1022.2 |
| 20260906021604 | 70 | 156 | 2.0 | 4.0 | 0.00 | 0.00 | 0.00 | 90 | 1022.0 |
| 20260906020603 | 69 | 156 | 2.0 | 4.0 | 0.00 | 0.00 | 0.00 | 90 | 1022.0 |
| 20260906015602 | 69 | 168 | 2.0 | 6.0 | 0.00 | 0.00 | 0.00 | 90 | 1022.2 |
| 20260906014621 | 70 | 169 | 3.0 | 6.0 | 0.00 | 0.00 | 0.00 | 89 | 1022.2 |
| 20260906013600 | 70 | 172 | 3.0 | 5.0 | 0.00 | 0.00 | 0.00 | 87 | 1022.1 |
| 20260906012558 | 71 | 167 | 2.0 | 4.0 | 0.00 | 0.00 | 0.00 | 86 | 1022.2 |
| 20260906011637 | 71 | 127 | 2.0 | 3.0 | 0.00 | 0.00 | 0.00 | 85 | 1022.3 |
| 20260906010556 | 71 | 169 | 2.0 | 5.0 | 0.00 | 0.00 | 0.00 | 84 | 1022.2 |
| 20260906005554 | 72 | 174 | 2.0 | 4.0 | 0.00 | 0.00 | 0.00 | 84 | 1022.3 |
| 20260906004553 | 72 | 172 | 2.0 | 4.0 | 0.00 | 0.00 | 0.00 | 84 | 1022.3 |
| 20260906003552 | 72 | 176 | 3.0 | 5.0 | 0.00 | 0.00 | 0.00 | 84 | 1022.2 |
| 20260906002551 | 72 | 161 | 2.0 | 4.0 | 0.00 | 0.00 | 0.00 | 84 | 1022.1 |
| 20260906001550 | 72 | 174 | 2.0 | 4.0 | 0.00 | 0.00 | 0.00 | 84 | 1022.3 |
| 20260906000549 | 72 | 163 | 3.0 | 5.0 | 0.00 | 0.00 | 0.00 | 84 | 1022.3 |
| 20260905235547 | 72 | 168 | 3.0 | 5.0 | 0.00 | 0.00 | 0.00 | 84 | 1022.4 |
| 20260905234547 | 72 | 174 | 3.0 | 5.0 | 0.00 | 0.00 | 0.00 | 84 | 1022.5 |
| 20260905233545 | 72 | 163 | 2.0 | 5.0 | 0.00 | 0.00 | 0.00 | 85 | 1022.5 |
| 20260905232544 | 73 | 158 | 2.0 | 6.0 | 0.00 | 0.00 | 0.00 | 86 | 1022.4 |
| 20260905231543 | 72 | 143 | 1.0 | 4.0 | 0.00 | 0.00 | 0.00 | 88 | 1022.5 |
| 20260905230541 | 72 | 159 | 2.0 | 5.0 | 0.00 | 0.00 | 0.00 | 88 | 1022.4 |
| 20260905225540 | 73 | 173 | 3.0 | 4.0 | 0.00 | 0.00 | 0.00 | 87 | 1022.5 |
| 20260905224538 | 74 | 168 | 3.0 | 4.0 | 0.00 | 0.00 | 0.00 | 85 | 1022.4 |
| 20260905223538 | 74 | 132 | 1.0 | 3.0 | 0.00 | 0.00 | 0.00 | 85 | 1022.3 |
| 20260905222536 | 74 | 62 | 1.0 | 2.0 | 0.00 | 0.00 | 0.00 | 85 | 1022.4 |
| 20260905221535 | 74 | 28 | 0.0 | 2.0 | 0.00 | 0.00 | 0.00 | 85 | 1022.5 |
| 20260905220534 | 75 | 141 | 0.0 | 2.0 | 0.00 | 0.00 | 0.00 | 85 | 1022.5 |
| 20260905215612 | 75 | 179 | 1.0 | 3.0 | 0.00 | 0.00 | 0.00 | 84 | 1022.3 |
| 20260905214531 | 75 | 63 | 0.0 | 2.0 | 0.00 | 0.00 | 0.00 | 84 | 1022.4 |
| 20260905213550 | 75 | 69 | 1.0 | 3.0 | 0.00 | 0.00 | 0.00 | 84 | 1022.3 |
| 20260905212528 | 75 | 11 | 0.0 | 2.0 | 0.00 | 0.00 | 0.00 | 83 | 1022.2 |
| 20260905211547 | 75 | 0.0 | 2.0 | 0.00 | 0.00 | 0.00 | 83 | 1022.1 | |
| 20260905210527 | 75 | 9 | 1.0 | 2.0 | 0.00 | 0.00 | 0.00 | 82 | 1022.2 |
| 20260905205525 | 76 | 335 | 2.0 | 3.0 | 0.00 | 0.00 | 0.00 | 82 | 1022.2 |
| 20260905204524 | 76 | 333 | 1.0 | 4.0 | 0.00 | 0.00 | 0.00 | 82 | 1022.1 |
| 20260905203523 | 76 | 328 | 1.0 | 3.0 | 0.00 | 0.00 | 0.00 | 82 | 1022.1 |
| 20260905202542 | 77 | 336 | 3.0 | 4.0 | 0.00 | 0.00 | 0.00 | 82 | 1022.2 |
| 20260905201520 | 77 | 358 | 2.0 | 4.0 | 0.00 | 0.00 | 0.00 | 82 | 1022.0 |
| 20260905200519 | 77 | 349 | 2.0 | 5.0 | 0.00 | 0.00 | 0.00 | 82 | 1022.0 |
| 20260905195518 | 78 | 349 | 4.0 | 5.0 | 0.00 | 0.00 | 0.00 | 81 | 1021.9 |
| 20260905194517 | 78 | 4 | 3.0 | 4.0 | 0.00 | 0.00 | 0.00 | 81 | 1022.1 |
| 20260905193516 | 78 | 14 | 3.0 | 4.0 | 0.00 | 0.00 | 0.00 | 80 | 1022.0 |
| 20260905192615 | 78 | 19 | 3.0 | 5.0 | 0.00 | 0.00 | 0.00 | 80 | 1021.8 |
| 20260905191633 | 79 | 10 | 3.0 | 6.0 | 0.00 | 0.00 | 0.00 | 79 | 1021.8 |
| 20260905190612 | 79 | 18 | 4.0 | 7.0 | 0.00 | 0.00 | 0.00 | 77 | 1021.6 |
| 20260905185611 | 80 | 37 | 5.0 | 9.0 | 0.00 | 0.00 | 0.00 | 75 | 1021.5 |
| 20260905184609 | 80 | 32 | 7.0 | 10.0 | 0.00 | 0.00 | 0.00 | 74 | 1021.4 |
| 20260905183609 | 80 | 36 | 7.0 | 10.0 | 0.00 | 0.00 | 0.00 | 71 | 1021.3 |
| 20260905182607 | 81 | 47 | 6.0 | 10.0 | 0.00 | 0.00 | 0.00 | 70 | 1021.1 |
| 20260905181606 | 82 | 40 | 6.0 | 12.0 | 0.00 | 0.00 | 0.00 | 66 | 1021.1 |
| 20260905180605 | 82 | 50 | 7.0 | 12.0 | 0.00 | 0.00 | 0.00 | 63 | 1020.9 |
| 20260905175603 | 83 | 40 | 7.0 | 11.0 | 0.00 | 0.00 | 0.00 | 57 | 1020.8 |
| 20260905174602 | 83 | 45 | 6.0 | 12.0 | 0.00 | 0.00 | 0.00 | 55 | 1020.6 |
| 20260905173600 | 84 | 37 | 6.0 | 14.0 | 0.00 | 0.00 | 0.00 | 54 | 1020.7 |
| 20260905172558 | 85 | 27 | 8.0 | 15.0 | 0.00 | 0.00 | 0.00 | 51 | 1020.4 |
| 20260905171601 | 86 | 28 | 8.0 | 14.0 | 0.00 | 0.00 | 0.00 | 49 | 1020.4 |
| 20260905170555 | 87 | 33 | 7.0 | 14.0 | 0.00 | 0.00 | 0.00 | 47 | 1020.5 |
| 20260905165554 | 87 | 27 | 9.0 | 15.0 | 0.00 | 0.00 | 0.00 | 47 | 1020.2 |
| 20260905164553 | 88 | 21 | 12.0 | 16.0 | 0.00 | 0.00 | 0.00 | 45 | 1020.2 |
| 20260905163612 | 89 | 29 | 9.0 | 13.0 | 0.00 | 0.00 | 0.00 | 41 | 1020.1 |
| 20260905162550 | 89 | 40 | 7.0 | 14.0 | 0.00 | 0.00 | 0.00 | 40 | 1020.3 |
| 20260905161549 | 90 | 29 | 7.0 | 13.0 | 0.00 | 0.00 | 0.00 | 39 | 1020.3 |
| 20260905160547 | 90 | 26 | 8.0 | 19.0 | 0.00 | 0.00 | 0.00 | 39 | 1020.2 |
| 20260905155546 | 90 | 31 | 7.0 | 13.0 | 0.00 | 0.00 | 0.00 | 40 | 1020.1 |
| 20260905154545 | 91 | 27 | 9.0 | 18.0 | 0.00 | 0.00 | 0.00 | 40 | 1020.1 |
| 20260905153544 | 91 | 28 | 15.0 | 22.0 | 0.00 | 0.00 | 0.00 | 40 | 1020.0 |
| 20260905152543 | 92 | 25 | 11.0 | 17.0 | 0.00 | 0.00 | 0.00 | 40 | 1019.9 |
| 20260905151542 | 92 | 43 | 9.0 | 15.0 | 0.00 | 0.00 | 0.00 | 38 | 1019.9 |
| 20260905150542 | 92 | 29 | 11.0 | 18.0 | 0.00 | 0.00 | 0.00 | 40 | 1020.1 |
| 20260905145539 | 92 | 26 | 11.0 | 19.0 | 0.00 | 0.00 | 0.00 | 39 | 1020.1 |
| 20260905144538 | 92 | 33 | 11.0 | 18.0 | 0.00 | 0.00 | 0.00 | 36 | 1020.1 |
| 20260905143537 | 92 | 34 | 9.0 | 19.0 | 0.00 | 0.00 | 0.00 | 37 | 1019.9 |
| 20260905142536 | 93 | 40 | 10.0 | 17.0 | 0.00 | 0.00 | 0.00 | 36 | 1020.1 |
| 20260905141535 | 93 | 25 | 10.0 | 18.0 | 0.00 | 0.00 | 0.00 | 36 | 1020.2 |
| 20260905140534 | 93 | 15 | 11.0 | 26.0 | 0.00 | 0.00 | 0.00 | 35 | 1020.0 |
| 20260905135532 | 93 | 17 | 10.0 | 21.0 | 0.00 | 0.00 | 0.00 | 35 | 1020.3 |
| 20260905134532 | 94 | 38 | 9.0 | 23.0 | 0.00 | 0.00 | 0.00 | 32 | 1020.3 |
| 20260905133530 | 94 | 18 | 8.0 | 17.0 | 0.00 | 0.00 | 0.00 | 32 | 1020.2 |
| 20260905132529 | 94 | 29 | 9.0 | 20.0 | 0.00 | 0.00 | 0.00 | 30 | 1020.2 |
| 20260905131548 | 95 | 26 | 11.0 | 19.0 | 0.00 | 0.00 | 0.00 | 28 | 1020.3 |
| 20260905130547 | 95 | 31 | 9.0 | 15.0 | 0.00 | 0.00 | 0.00 | 28 | 1020.5 |
| 20260905125526 | 94 | 8 | 10.0 | 17.0 | 0.00 | 0.00 | 0.00 | 29 | 1020.5 |
| 20260905124525 | 94 | 347 | 8.0 | 15.0 | 0.00 | 0.00 | 0.00 | 31 | 1020.5 |
| 20260905123523 | 94 | 27 | 7.0 | 15.0 | 0.00 | 0.00 | 0.00 | 31 | 1020.6 |
| 20260905122542 | 94 | 30 | 9.0 | 16.0 | 0.00 | 0.00 | 0.00 | 30 | 1020.8 |
| 20260905121520 | 93 | 14 | 8.0 | 18.0 | 0.00 | 0.00 | 0.00 | 29 | 1020.8 |
| 20260905120519 | 93 | 354 | 7.0 | 13.0 | 0.00 | 0.00 | 0.00 | 30 | 1020.7 |
| 20260905115538 | 93 | 329 | 8.0 | 12.0 | 0.00 | 0.00 | 0.00 | 27 | 1020.8 |
| 20260905114517 | 92 | 319 | 6.0 | 15.0 | 0.00 | 0.00 | 0.00 | 25 | 1021.0 |
| 20260905113516 | 93 | 339 | 6.0 | 13.0 | 0.00 | 0.00 | 0.00 | 26 | 1021.2 |
| 20260905112615 | 92 | 341 | 7.0 | 11.0 | 0.00 | 0.00 | 0.00 | 27 | 1021.2 |
| 20260905111613 | 92 | 347 | 7.0 | 11.0 | 0.00 | 0.00 | 0.00 | 25 | 1021.2 |
| 20260905110612 | 92 | 23 | 9.0 | 19.0 | 0.00 | 0.00 | 0.00 | 26 | 1021.2 |
| 20260905105611 | 91 | 5 | 6.0 | 11.0 | 0.00 | 0.00 | 0.00 | 28 | 1021.2 |
| 20260905104630 | 91 | 28 | 8.0 | 13.0 | 0.00 | 0.00 | 0.00 | 29 | 1021.2 |
| 20260905103609 | 90 | 9 | 7.0 | 14.0 | 0.00 | 0.00 | 0.00 | 28 | 1021.4 |
| 20260905102607 | 90 | 11 | 9.0 | 16.0 | 0.00 | 0.00 | 0.00 | 30 | 1021.3 |
| 20260905101606 | 89 | 358 | 5.0 | 10.0 | 0.00 | 0.00 | 0.00 | 33 | 1021.4 |
| 20260905100604 | 89 | 354 | 6.0 | 10.0 | 0.00 | 0.00 | 0.00 | 34 | 1021.5 |
| 20260905095603 | 88 | 18 | 7.0 | 11.0 | 0.00 | 0.00 | 0.00 | 36 | 1021.6 |
| 20260905094602 | 88 | 16 | 6.0 | 11.0 | 0.00 | 0.00 | 0.00 | 35 | 1021.7 |
| 20260905093601 | 88 | 349 | 6.0 | 12.0 | 0.00 | 0.00 | 0.00 | 36 | 1021.8 |
| 20260905092600 | 87 | 356 | 4.0 | 10.0 | 0.00 | 0.00 | 0.00 | 36 | 1021.8 |
| 20260905091639 | 85 | 337 | 4.0 | 9.0 | 0.00 | 0.00 | 0.00 | 40 | 1021.9 |
| 20260905090557 | 85 | 18 | 4.0 | 7.0 | 0.00 | 0.00 | 0.00 | 41 | 1021.8 |
| 20260905085556 | 84 | 7 | 4.0 | 6.0 | 0.00 | 0.00 | 0.00 | 42 | 1021.7 |
| 20260905084555 | 84 | 4 | 4.0 | 9.0 | 0.00 | 0.00 | 0.00 | 43 | 1021.6 |
| 20260905083634 | 85 | 6 | 3.0 | 7.0 | 0.00 | 0.00 | 0.00 | 42 | 1021.8 |
| 20260905082553 | 83 | 321 | 3.0 | 5.0 | 0.00 | 0.00 | 0.00 | 43 | 1021.7 |
| 20260905081632 | 81 | 268 | 1.0 | 4.0 | 0.00 | 0.00 | 0.00 | 46 | 1021.7 |
| 20260905080551 | 78 | 56 | 2.0 | 5.0 | 0.00 | 0.00 | 0.00 | 50 | 1021.6 |
| 20260905075549 | 77 | 172 | 2.0 | 4.0 | 0.00 | 0.00 | 0.00 | 52 | 1021.7 |
| 20260905074549 | 77 | 145 | 3.0 | 6.0 | 0.00 | 0.00 | 0.00 | 57 | 1021.8 |
| 20260905073547 | 76 | 190 | 2.0 | 4.0 | 0.00 | 0.00 | 0.00 | 58 | 1021.6 |